Regional Weather Roundup
Issued by NWS

Home | Current Version | Previous Version | Graphics & Text | Print | Product List | Glossary On
Versions: 1 2 3 4 5 6 7 8 9 10 11 12 13 14 15 16 17 18 19 20 21 22 23 24 25 26 27 28 29 30 31 32 33 34 35 36 37 38 39 40 41 42 43 44 45 46 47 48 49 50
000
ASUS45 KABQ 222201
RWRNM
NEW MEXICO REGIONAL WEATHER ROUNDUP
NATIONAL WEATHER SERVICE ALBUQUERQUE NM
400 PM MDT FRI MAY 22 2015

NOTE: "FAIR" MEANS FEW OR NO CLOUDS BELOW 12,000 FEET AGL WITH NO
       SIGNIFICANT WEATHER OR OBSTRUCTIONS TO VISION.

      THIS PRODUCT IS RELEASED AS TWO VERSIONS.  ONE VERSION NEAR
      THE TOP OF THE HOUR CONTAINING PRELIMINARY DATA FROM ALBUQUERQUE
      AND OTHER STATIONS.  A FINAL VERSION WITH ADDITIONAL DATA IS
      ISSUED ABOUT 10 MINUTES AFTER THE HOUR.

NMZ501-503-504-510>518-222300-
NORTHWEST PLATEAU/NORTHCENTRAL MOUNTAINS

CITY           SKY/WX    TMP DP  RH WIND       PRES   REMARKS
FARMINGTON     SUNNY     68  34  28 SE17G28   29.91F
SANTA FE       PTSUNNY   67  37  33 S8        30.03F
TAOS           MOSUNNY   63  34  34 SW20      30.08S

$$
NMZ402-403-502-505>509-222300-
WESTCENTRAL MOUNTAINS/SOUTHWEST MOUNTAINS

CITY           SKY/WX    TMP DP  RH WIND       PRES   REMARKS
GALLUP         PTSUNNY   70  19  14 SW17G28   29.93F
SILVER CITY      N/A     77  14   9 SW17G25   30.00F

$$
NMZ407-409-411-412-222300-
SOUTHERN DESERTS

CITY           SKY/WX    TMP DP  RH WIND       PRES   REMARKS
DEMING         MOSUNNY   85  11   6 S17G28    29.92F
HOLLOMAN AFB   SUNNY     82  37  20 S16       29.92F
ALAMOGORDO     SUNNY     82  32  16 S20G30    29.95F
T OR C         SUNNY     80  26  13 S25G31    29.93F

$$
NMZ519>523-222300-
CENTRAL VALLEYS/CENTRAL HIGHLANDS

CITY           SKY/WX    TMP DP  RH WIND       PRES   REMARKS
ALBUQUERQUE    MOSUNNY   74  33  22 S23G35    29.97F
DOUBLE EAGLE   PTSUNNY   72  34  25 SE22      29.99F
CLINES CORNERS MOSUNNY   64  35  34 SW17G31   30.07F
BELEN          FAIR      76  28  17 S25G37    29.95F
SOCORRO        NOT AVBL

$$
NMZ524>526-539-540-222300-
SOUTHCENTRAL MOUNTAINS

CITY           SKY/WX    TMP DP  RH WIND       PRES   REMARKS
RUIDOSO        NOT AVBL

$$
NMZ527>531-222300-
NORTHEAST HIGHLANDS/NORTHEAST PLAINS

CITY           SKY/WX    TMP DP  RH WIND       PRES   REMARKS
LAS VEGAS      MOSUNNY   65  35  33 SW20G31   30.07F
RATON          CLOUDY    63  41  44 CALM      30.01F
CLAYTON        MOSUNNY   67  52  58 S23G33    30.01F

$$
NMZ532>537-222300-
EASTCENTRAL PLAINS

CITY           SKY/WX    TMP DP  RH WIND       PRES   REMARKS
TUCUMCARI      SUNNY     72  52  49 S13       30.00F
CANNON AFB     NOT AVBL
CLOVIS AIRPORT MOSUNNY   64  54  68 S13       30.07F

$$
NMZ028-029-538-222300-
SOUTHEAST PLAINS

CITY           SKY/WX    TMP DP  RH WIND       PRES   REMARKS
ROSWELL        SUNNY     76  55  48 SE17G23   29.98F
ARTESIA        SUNNY     75  55  50 SE17      29.99F
CARLSBAD       SUNNY     76  59  55 SE13G18   29.97F
HOBBS          PTSUNNY   66  63  88 SE12      30.05F


$$


USA.gov is the U.S. government's official web portal to all federal, state and local government web resources and services.